GEFSNE_500_meanwind_024.txt.gz
Wind_Speed
70 71 71 70 69 67 66 66 66 64 62 64 66 68 70 70 71 72 73 73 74 74 73 73 73 72 71 71 72 72 71 69 67 65 62 60 59 58
71 70 69 67 66 66 66 65 66 65 62 63 66 68 70 71 71 71 71 70 67 65 64 62 62 61 60 60 61 63 64 65 65 65 63 61 59 58
69 67 66 65 64 63 63 64 65 65 64 64 66 68 69 69 68 67 63 59 55 52 51 49 49 49 49 50 51 52 55 57 60 62 63 62 60 58
65 65 64 62 62 63 63 64 65 66 66 65 64 64 63 61 58 53 48 44 42 41 41 40 40 40 41 41 42 43 45 47 51 55 59 61 59 58
62 61 61 61 61 62 63 64 65 65 64 62 58 55 50 46 42 38 35 34 32 32 31 32 32 33 33 34 34 35 36 38 42 46 51 57 59 58
60 60 60 61 61 62 62 62 62 59 56 51 45 40 36 33 30 27 26 26 26 25 24 25 26 27 27 27 27 28 30 31 34 37 43 50 54 57
58 59 60 60 61 60 59 57 53 48 42 36 32 29 27 25 24 22 21 22 22 21 20 21 21 21 22 22 22 23 25 27 30 33 38 43 49 53
57 58 58 57 56 54 51 47 42 36 29 25 23 22 21 21 20 19 19 18 19 18 18 18 18 18 18 17 18 18 20 22 26 29 33 38 43 48
54 53 52 51 48 43 38 34 30 25 21 19 18 19 19 19 19 18 18 18 18 18 18 17 17 15 15 13 13 14 15 18 21 25 28 32 37 43
48 46 44 40 36 31 27 24 21 19 18 17 18 18 19 19 19 19 19 20 21 20 19 18 17 16 14 13 12 11 12 14 17 21 25 28 33 38
41 38 33 28 25 21 18 16 15 15 16 17 18 19 20 20 21 21 21 21 20 21 20 19 18 17 16 14 13 12 11 12 14 18 22 26 30 35
33 29 24 19 15 13 12 12 13 15 17 18 20 20 20 20 20 19 18 17 16 16 16 15 15 14 14 14 13 12 12 12 13 15 19 23 28 32
25 21 16 13 11 11 12 12 14 16 17 18 19 19 18 17 16 15 15 13 13 12 12 11 11 10 10 11 12 12 12 12 12 14 17 20 24 29
18 14 10 9 10 11 12 13 15 16 18 18 17 16 15 14 14 14 13 13 13 13 12 12 11 10 9 8 8 8 9 9 11 12 14 17 21 25
11 8 7 8 10 11 12 13 15 17 17 16 15 15 15 15 15 14 15 15 15 16 15 14 13 11 9 7 5 4 4 5 7 8 11 13 17 21
5 4 5 7 9 11 11 13 15 16 15 16 16 16 16 16 16 16 16 17 18 18 18 18 16 14 12 10 7 5 3 1 2 4 7 10 14 18
0 2 5 7 9 10 11 13 15 15 15 17 17 16 17 17 17 17 17 18 19 19 20 19 18 16 15 14 12 9 7 6 5 5 7 9 12 16
4 4 6 7 8 10 12 14 15 15 16 17 17 17 17 18 18 18 18 18 19 20 21 21 20 18 18 17 15 13 12 11 11 11 11 11 13 15
6 6 7 7 8 10 13 14 15 17 18 18 18 18 18 19 20 20 20 19 19 20 21 22 21 21 20 19 17 17 18 18 17 17 17 17 18 19
7 7 7 8 10 12 14 15 16 18 19 20 20 21 21 22 22 23 23 21 21 21 22 22 22 22 22 22 21 22 23 23 22 21 21 22 22 22
8 8 9 9 11 12 14 16 17 19 20 21 22 23 23 25 26 26 26 25 24 24 23 23 23 24 25 25 24 24 25 25 25 25 24 23 22 22
9 9 10 11 12 13 15 16 17 19 21 22 22 23 24 26 28 29 30 29 28 27 26 26 26 27 26 25 24 25 25 26 25 25 24 24 23 22
10 10 11 12 13 14 15 16 17 19 20 21 22 23 24 26 28 30 31 31 30 29 29 29 29 28 27 25 24 24 24 24 24 23 22 22 22 20

GEFSNE_500_meanwind_030.txt.gz
Wind_Speed
57 59 60 62 63 64 64 64 65 64 63 64 65 65 66 67 68 68 67 67 66 66 66 65 65 65 65 65 65 65 65 66 66 67 68 70 71 72
59 61 62 63 63 63 63 63 64 63 62 63 65 66 67 67 67 67 66 64 63 61 60 59 59 58 57 57 57 58 59 60 61 62 64 66 68 70
61 61 62 61 61 61 61 62 62 63 63 63 65 65 65 64 63 61 59 56 54 52 50 49 47 47 47 47 47 48 49 51 53 55 58 60 63 66
60 60 60 59 59 59 60 61 62 63 63 62 61 60 59 57 54 51 48 45 42 40 38 37 36 35 36 36 36 37 39 41 44 47 50 53 56 59
58 58 57 57 57 58 59 61 61 61 60 58 54 52 49 46 43 40 37 34 32 31 29 29 29 29 29 29 30 31 32 33 36 38 41 44 47 51
55 55 55 55 56 57 58 59 58 56 52 49 45 42 39 37 34 31 29 28 28 27 26 25 26 26 26 26 26 27 28 29 30 33 35 37 40 43
53 53 54 55 56 56 55 54 51 47 43 39 35 33 32 30 29 28 27 26 26 26 26 25 25 25 25 25 25 25 26 26 27 28 30 32 34 37
51 52 53 54 53 52 50 46 42 38 33 30 29 28 28 28 28 28 28 27 26 26 26 26 26 25 25 24 24 24 24 24 24 24 25 26 28 31
51 51 51 50 48 45 41 38 34 30 28 27 27 27 27 27 27 27 27 26 26 25 25 25 25 25 25 24 24 23 22 22 21 21 21 22 23 25
49 48 46 43 39 35 33 30 28 27 28 28 28 28 28 27 26 25 24 23 23 22 22 22 22 22 22 22 22 21 21 20 20 20 19 19 20 22
45 42 38 34 30 27 25 24 25 26 27 28 28 27 26 24 22 21 20 19 19 19 18 18 18 18 18 18 18 18 19 18 17 17 17 18 19 22
38 35 31 26 23 20 20 21 23 25 26 26 25 23 21 20 19 18 16 16 16 16 17 17 16 16 15 15 14 15 15 15 16 15 15 15 17 20
30 27 24 19 17 17 18 20 22 23 23 21 19 19 19 18 17 15 15 15 15 15 16 16 15 14 13 12 12 12 12 12 12 12 13 13 15 17
24 21 17 13 13 15 18 20 20 20 18 17 17 17 17 16 15 14 14 14 15 15 16 15 14 13 11 11 10 9 8 9 9 10 10 12 14 16
17 13 10 9 11 14 16 17 17 16 15 16 16 16 17 16 15 14 14 14 16 16 15 15 14 12 11 9 8 6 6 5 6 7 8 10 13 15
8 6 6 8 10 12 13 13 13 13 14 15 15 16 16 16 15 15 14 14 15 15 15 14 14 12 10 9 8 7 6 4 2 2 5 8 12 15
3 2 3 6 8 10 10 11 12 13 14 16 16 17 17 16 15 15 15 15 16 16 15 15 15 14 14 13 12 11 10 8 5 3 4 7 10 15
3 1 3 5 7 9 10 11 12 14 16 17 18 19 18 17 16 16 16 17 17 17 17 17 18 18 18 18 17 16 15 14 12 9 7 8 10 13
5 4 5 7 8 9 11 12 14 15 17 18 20 21 21 20 19 18 19 19 20 20 21 21 21 22 21 21 20 21 21 21 19 15 13 11 11 12
7 7 8 9 10 11 12 14 15 17 18 20 22 23 23 22 22 21 21 21 22 22 23 23 23 23 23 23 23 24 25 25 23 21 19 17 15 15
9 9 10 11 12 13 14 15 17 19 21 22 24 25 25 25 24 24 23 23 23 23 22 23 24 25 24 24 23 25 26 27 27 26 24 22 20 19
11 11 12 13 14 14 15 16 18 20 22 24 25 25 25 25 25 25 24 24 24 23 23 23 23 24 23 23 23 24 26 27 28 28 27 26 24 22
12 13 13 14 14 15 15 17 18 20 21 23 25 26 27 26 26 26 25 24 24 23 23 23 23 22 22 22 22 23 24 25 25 25 25 25 25 23

GEFSNE_500_meanwind_036.txt.gz
Wind_Speed
48 50 52 54 56 58 61 63 64 65 65 66 67 68 69 69 70 71 71 71 69 68 66 65 64 63 62 61 61 62 62 63 64 65 65 66 66 66
51 53 55 57 59 61 62 64 65 65 64 65 66 67 67 68 68 68 66 63 61 60 59 58 57 55 54 52 52 52 53 54 55 57 58 59 61 62
54 56 57 58 60 61 62 62 63 63 63 62 64 65 65 65 64 62 60 57 54 51 50 48 47 46 44 43 42 42 42 43 44 46 47 50 53 55
56 57 58 58 59 59 60 60 60 61 61 60 61 62 61 59 58 55 52 49 46 44 42 41 40 39 38 37 36 35 34 34 35 37 38 40 43 47
57 57 57 57 57 58 58 58 58 58 59 59 58 57 55 53 50 47 44 42 41 40 39 38 37 36 35 34 32 31 30 30 30 30 31 33 35 38
56 55 55 55 55 55 55 56 56 57 56 55 52 49 47 44 42 40 39 39 38 38 37 36 35 34 33 32 31 30 30 29 29 29 29 30 31 33
55 55 54 54 53 53 53 54 54 53 51 48 45 41 39 38 38 38 38 36 35 35 33 32 32 31 31 30 30 29 29 29 29 29 29 29 30 31
53 53 52 51 50 50 51 51 50 47 44 41 37 35 35 36 36 35 34 32 30 30 29 28 28 28 28 28 28 28 28 29 29 29 29 29 30 31
51 50 49 49 47 47 47 46 43 41 37 34 32 33 34 33 32 30 29 28 28 26 25 24 25 26 26 25 25 26 26 27 28 28 29 29 30 30
48 47 46 45 44 42 41 39 37 34 32 31 32 32 31 29 28 28 27 26 25 25 24 23 24 24 24 24 23 23 24 24 25 26 27 28 29 29
44 43 42 40 38 36 34 32 30 28 29 30 29 28 27 27 26 26 25 24 23 23 24 24 24 24 24 23 22 21 21 21 22 23 24 25 26 26
40 38 36 33 31 29 26 24 23 24 25 26 26 25 26 26 25 24 23 22 22 22 23 24 23 22 21 22 22 20 19 18 18 19 20 21 22 22
33 31 29 25 23 21 19 18 19 20 21 22 23 23 24 24 24 23 21 21 21 22 22 22 21 20 19 19 19 18 16 16 15 16 16 17 18 18
26 24 20 16 14 13 13 15 16 17 18 20 21 21 22 21 21 20 20 20 20 21 21 20 20 19 18 17 16 15 15 14 13 12 12 13 13 14
17 13 9 7 7 8 10 12 13 15 17 19 20 20 20 19 19 19 20 20 20 20 20 20 20 19 19 17 16 15 14 13 11 9 8 8 9 10
6 3 2 2 4 7 8 10 12 15 17 18 19 19 18 18 18 19 20 20 20 21 21 21 21 21 21 21 19 17 15 13 10 7 5 4 5 6
2 3 4 5 6 7 8 11 13 15 17 18 18 18 18 18 18 19 20 21 22 22 22 22 23 23 24 24 22 20 18 15 11 7 3 1 3 5
6 6 6 7 7 8 10 12 13 15 16 17 18 19 19 19 18 19 19 21 21 22 23 23 24 25 26 26 25 22 20 17 14 10 8 6 6 7
9 9 9 9 10 11 12 13 14 15 17 18 19 19 19 19 19 19 19 20 21 22 23 24 24 25 26 26 26 25 23 20 18 15 12 10 10 9
11 11 12 12 13 13 14 15 16 17 17 18 18 19 19 19 19 19 19 19 20 21 22 22 23 24 25 27 27 26 25 24 22 19 16 15 13 12
13 13 14 14 14 15 15 16 17 18 18 18 19 19 19 19 19 19 19 19 19 20 20 20 22 23 25 26 26 26 26 26 25 22 20 18 17 16
15 15 15 15 15 15 16 16 16 17 18 19 19 20 20 20 20 20 20 19 19 18 19 19 20 22 23 24 25 26 27 27 26 25 23 22 20 19
15 15 15 15 14 15 15 15 15 16 18 18 19 19 20 20 20 20 20 20 19 19 18 19 19 20 22 23 24 25 26 26 26 25 24 24 23 21

GEFSNE_500_meanwind_042.txt.gz
Wind_Speed
49 50 51 52 53 54 55 56 57 58 60 62 64 66 67 69 70 71 72 72 72 72 71 71 71 70 70 69 68 67 66 64 63 62 62 61 61 62
52 53 54 55 56 57 57 58 59 60 61 62 64 65 66 67 68 68 68 68 68 68 68 68 67 65 63 62 61 59 58 57 56 55 54 54 54 54
56 56 56 57 58 58 59 59 60 61 61 62 63 64 65 65 65 66 66 65 65 64 63 61 59 57 56 54 53 52 50 50 49 49 49 49 49 49
58 58 58 58 59 59 59 60 60 61 61 60 60 61 62 63 63 62 61 61 59 57 56 54 53 51 48 47 46 46 45 45 44 45 45 44 44 44
59 58 58 59 59 59 60 60 59 59 59 58 58 59 59 59 58 56 55 53 52 51 49 47 45 44 43 42 42 42 42 41 41 41 40 40 39 39
58 59 59 59 59 59 58 58 57 57 56 56 56 55 55 54 52 50 47 46 45 44 44 42 41 40 39 38 38 37 37 37 37 37 37 36 36 36
58 59 59 58 57 57 56 56 55 54 54 53 52 50 49 47 45 44 42 40 39 39 38 37 37 36 36 35 35 34 34 34 34 34 33 33 33 32
57 57 56 56 55 55 54 53 52 51 50 48 46 44 42 40 38 36 35 34 33 34 33 33 33 33 33 33 33 33 32 32 32 32 32 31 30 30
54 54 54 54 53 51 50 49 48 47 44 42 39 37 34 32 31 30 30 30 30 29 28 28 30 30 31 31 31 31 30 30 30 30 29 29 29 28
52 51 50 49 47 45 44 44 43 41 38 35 31 29 27 26 26 25 24 25 26 25 24 24 26 27 29 30 29 27 27 27 28 28 27 27 26 26
47 45 43 41 40 39 38 36 35 33 31 27 24 23 23 22 22 21 22 22 23 23 24 24 24 25 26 27 25 24 23 23 23 24 24 24 23 23
40 38 37 35 34 32 29 27 25 23 21 20 20 20 19 19 19 19 20 20 20 20 21 21 22 22 22 24 23 22 21 20 19 19 19 19 20 20
33 31 30 28 25 22 19 17 16 15 15 15 16 16 16 17 17 18 18 19 19 20 20 20 21 22 22 23 23 22 20 18 16 15 15 15 15 16
25 23 20 17 14 12 10 9 9 10 11 12 13 14 14 15 16 17 18 18 19 20 21 22 23 23 24 24 23 22 19 16 14 12 11 10 11 12
15 12 10 8 6 4 4 5 6 8 10 11 12 13 14 14 15 16 17 19 20 21 23 24 24 25 25 25 24 22 19 15 12 9 6 5 6 7
4 2 1 2 3 4 5 6 8 9 10 11 12 13 14 15 16 17 18 20 21 22 23 24 25 26 26 27 25 22 19 15 11 8 4 1 2 4
5 6 7 7 7 8 9 10 11 12 12 13 14 15 16 17 18 18 19 20 21 22 24 24 25 26 27 27 25 23 20 16 12 9 7 5 5 5
11 11 11 11 11 12 12 12 13 13 14 15 16 17 18 18 19 19 19 20 21 22 23 24 25 26 27 26 25 23 21 18 16 13 11 10 9 9
13 13 13 13 13 13 13 13 14 14 15 16 17 18 19 20 20 20 20 21 22 22 23 24 24 25 25 25 25 23 22 21 19 17 15 14 13 12
14 13 13 14 13 13 13 14 15 16 17 18 19 19 20 21 21 21 21 22 22 22 22 23 23 23 25 26 26 24 23 22 21 19 18 16 15 13
14 14 14 13 13 13 14 14 15 16 17 19 20 20 21 21 22 22 22 22 22 22 22 22 23 24 25 26 26 25 24 23 22 21 20 19 17 16
13 13 13 13 13 13 14 14 15 17 18 19 20 21 22 22 23 23 23 23 22 22 22 22 24 24 24 24 25 26 26 25 24 23 22 21 20 19
13 12 12 12 12 13 14 15 16 17 18 19 20 21 22 23 24 24 24 24 23 22 22 22 22 23 24 25 25 25 25 26 26 24 23 23 22 22

GEFSNE_500_meanwind_048.txt.gz
Wind_Speed
48 49 50 52 54 55 57 58 59 59 60 62 63 64 65 66 66 67 68 69 70 71 70 70 71 71 71 70 70 69 68 67 67 66 65 64 64 63
53 54 55 56 58 58 60 61 61 62 62 63 64 64 65 66 66 66 67 67 67 67 67 67 66 65 65 64 64 63 62 61 60 60 59 59 58 58
57 57 58 59 61 61 62 62 63 63 63 64 65 64 65 65 65 65 64 63 63 63 62 61 60 59 59 58 57 57 57 56 55 54 53 52 51 50
60 60 60 61 62 63 63 63 63 63 63 63 63 64 63 63 62 61 61 60 59 58 57 56 54 53 52 51 50 50 49 48 48 47 47 46 45 45
60 61 61 62 62 63 62 62 62 62 62 61 61 61 61 61 59 58 57 56 54 52 51 49 47 46 45 45 44 43 42 42 42 41 41 41 41 41
61 62 62 62 61 61 61 61 60 60 60 60 59 58 57 55 54 52 50 49 47 45 44 42 42 41 40 39 38 37 37 37 38 38 38 39 39 39
62 62 61 60 60 59 58 58 58 57 56 55 53 51 50 48 47 46 43 40 39 38 37 38 37 37 36 35 35 34 34 34 35 36 37 37 37 37
60 59 58 57 56 55 54 53 51 50 48 47 45 44 43 42 40 38 35 33 31 32 32 33 34 34 33 33 33 33 33 33 34 34 35 36 36 35
55 54 53 51 49 48 47 45 44 42 40 39 37 36 35 34 31 30 29 28 28 27 27 29 31 31 32 31 31 32 32 32 32 32 32 31 32 32
48 47 45 43 42 40 39 39 37 36 34 31 29 27 26 24 23 22 22 24 26 26 26 27 29 30 32 32 32 31 31 31 31 30 29 28 28 27
42 41 38 37 34 33 32 31 30 28 26 24 21 19 18 18 18 18 19 20 22 25 27 28 28 29 31 33 32 32 31 30 29 28 27 25 24 23
34 32 31 29 27 26 24 23 22 20 18 17 15 14 14 14 15 17 18 20 22 24 26 27 28 28 28 30 30 29 29 28 26 25 23 21 19 18
25 23 22 20 19 18 17 16 15 13 13 12 12 13 14 15 16 17 19 21 23 24 25 26 27 28 28 28 28 27 26 25 22 20 17 15 13 12
16 14 13 12 11 11 10 9 9 9 10 10 11 13 14 16 17 18 20 21 23 24 25 26 26 27 27 27 26 25 23 21 19 16 13 10 8 7
10 8 7 7 7 7 7 7 8 9 10 11 12 14 15 16 17 18 20 22 24 24 25 25 26 27 26 25 24 22 21 19 17 14 11 7 4 2
7 7 7 7 7 8 8 8 9 10 11 12 14 15 16 17 18 19 21 23 24 24 24 24 25 26 25 24 23 22 20 18 16 14 12 9 7 5
9 10 10 10 10 10 10 10 11 12 13 15 16 17 18 19 20 20 21 22 22 22 22 23 24 24 25 24 23 21 20 18 17 16 14 12 11 10
11 11 11 11 11 12 12 12 13 14 16 17 17 18 19 20 21 21 22 22 21 21 22 23 23 24 24 23 22 22 21 19 18 17 16 14 14 13
12 12 12 12 12 13 14 14 15 16 17 18 19 20 21 22 22 22 22 21 21 22 22 23 23 22 22 22 23 23 22 21 20 19 18 17 16 15
12 12 13 13 13 14 15 15 16 17 18 19 20 21 22 23 23 23 21 21 21 22 23 23 22 21 21 23 23 23 23 22 21 21 20 19 18 18
12 12 13 13 14 15 15 16 17 17 18 19 21 22 23 24 24 23 21 21 21 22 22 23 22 22 23 24 23 22 23 23 23 22 21 21 20 19
12 13 13 13 14 15 16 16 17 18 19 20 21 22 23 24 24 23 22 21 21 21 22 23 23 23 23 23 23 23 23 24 24 24 23 23 22 22
12 12 13 14 14 15 15 16 17 18 19 20 21 22 23 23 23 23 22 22 21 21 22 23 23 23 23 23 23 23 24 24 24 24 23 23 23 23

GEFSNE_500_meanwind_054.txt.gz
Wind_Speed
44 46 48 50 52 53 55 57 59 61 63 66 67 69 70 70 70 71 72 72 73 73 73 73 73 72 72 70 69 68 67 67 66 66 65 64 64 64
49 51 52 54 56 57 60 62 63 65 67 69 71 72 71 71 71 71 71 71 72 72 72 71 70 69 67 66 65 64 63 62 61 60 60 60 60 59
53 55 56 57 59 61 63 64 66 67 69 69 69 69 68 68 68 68 68 68 68 67 66 66 65 63 62 61 59 58 57 56 56 55 54 54 55 55
56 57 58 60 62 64 65 67 67 66 65 64 64 64 63 63 62 62 62 61 61 60 59 58 57 57 55 53 52 52 51 50 49 49 49 49 49 49
59 60 61 63 63 63 63 62 61 59 59 58 57 57 57 56 55 55 55 55 54 53 51 50 49 48 46 45 44 44 43 43 43 44 44 45 45 45
60 60 60 61 60 58 56 55 55 54 53 52 52 51 51 51 50 50 49 48 46 45 43 42 40 39 38 38 38 38 38 38 39 40 41 42 43 43
58 57 56 56 54 53 52 50 48 47 47 46 45 45 45 44 43 42 41 39 38 37 36 36 34 34 34 33 33 33 34 36 37 38 39 40 41 41
53 53 52 50 48 46 45 43 42 41 40 40 39 38 37 36 36 35 34 32 31 31 30 30 30 30 30 30 31 32 34 35 36 37 38 38 38 38
48 47 46 44 42 41 39 37 36 34 33 33 32 31 31 31 30 29 28 27 27 26 25 26 27 28 29 31 32 33 34 34 35 35 36 36 36 36
44 43 41 38 36 34 32 30 29 28 27 26 26 26 26 25 25 24 24 24 24 24 24 24 26 28 30 31 32 32 32 32 33 33 33 32 32 32
36 33 31 28 26 24 23 22 21 20 20 21 21 21 20 20 21 21 21 21 22 24 24 25 26 28 29 30 31 30 30 30 29 29 28 27 26 26
25 23 21 18 17 16 16 15 15 15 16 16 16 16 17 18 19 19 20 21 22 23 24 25 25 25 26 27 27 28 27 26 25 24 23 22 21 19
17 15 13 12 12 12 12 12 12 13 13 13 14 15 16 17 18 19 20 21 22 23 23 22 22 23 23 23 24 24 23 22 22 21 19 17 15 13
11 10 9 9 9 9 10 11 12 12 13 13 14 14 16 17 18 19 20 21 21 21 21 21 21 21 22 22 22 21 21 20 19 17 15 13 11 9
8 8 8 8 9 10 11 12 13 13 13 14 14 15 17 18 19 19 20 20 20 20 21 21 21 21 21 21 21 20 19 18 17 16 14 12 11 9
8 9 9 9 10 11 12 13 14 14 14 15 15 16 18 18 18 19 19 20 20 20 20 20 20 21 21 21 20 20 18 17 16 16 15 14 13 12
8 9 10 10 11 11 12 13 14 14 14 15 15 17 17 18 18 18 19 19 19 19 19 20 20 20 21 20 20 19 18 18 17 17 16 16 15 15
9 10 10 11 11 12 12 13 14 14 14 14 15 17 17 17 17 18 18 18 18 19 19 20 20 20 20 20 20 19 19 19 19 19 18 17 17 16
10 10 11 11 11 12 12 12 13 14 15 15 16 17 17 17 17 17 17 18 18 18 18 19 20 20 20 20 21 21 20 20 19 19 19 19 18 18
9 10 11 11 11 11 12 12 14 15 16 16 16 17 17 17 16 16 17 17 17 18 18 19 19 20 20 21 22 22 22 21 20 20 20 20 19 19
9 10 10 11 11 12 13 13 14 15 16 16 16 17 17 16 16 16 16 16 17 17 18 18 19 20 21 22 22 22 22 22 22 21 21 20 20 20
9 10 10 11 11 12 13 14 15 16 17 16 16 17 16 16 16 15 15 16 16 17 17 18 19 19 20 21 21 22 22 22 22 21 21 21 20 19
9 9 10 11 11 12 13 14 15 16 16 16 16 16 16 16 16 15 15 15 16 16 17 18 18 19 19 20 20 21 21 21 21 21 21 20 20 19

GEFSNE_500_meanwind_060.txt.gz
Wind_Speed
43 45 46 47 48 50 52 54 56 57 59 61 62 64 64 63 63 64 65 66 66 67 69 70 71 71 70 69 69 69 68 68 66 65 63 62 61 61
47 48 49 50 51 53 54 55 56 57 60 61 61 61 62 63 63 64 65 65 65 65 65 65 65 65 65 65 64 63 63 61 59 58 57 57 57 57
48 49 51 51 52 53 54 55 55 55 56 57 59 60 61 60 60 61 61 62 61 60 59 59 59 59 58 58 58 57 55 55 54 53 53 52 52 52
51 52 52 53 53 53 54 54 55 55 55 57 58 58 58 59 58 58 57 56 54 53 53 52 52 51 50 50 49 48 47 47 47 47 47 48 48 49
52 53 53 53 54 54 55 55 56 56 57 57 56 56 56 55 53 52 51 50 49 48 47 45 45 45 44 43 42 42 41 41 41 41 42 43 44 44
53 54 54 55 55 54 54 55 55 55 54 54 52 52 51 49 48 46 45 44 43 41 41 40 40 39 38 38 37 36 36 35 36 36 37 38 39 40
53 53 53 53 52 52 51 50 50 49 48 47 45 44 42 41 40 38 37 37 37 36 35 35 34 35 34 33 33 33 33 33 33 34 35 36 37 38
50 49 49 48 47 47 45 45 43 41 39 37 36 35 34 33 32 32 31 30 30 30 30 31 32 31 31 31 31 31 31 32 33 33 34 35 36 36
44 43 42 41 39 37 35 33 31 29 29 29 28 26 26 25 26 26 26 26 27 27 27 28 29 29 29 29 29 30 30 30 31 31 31 32 33 33
37 35 33 31 29 27 26 24 22 21 20 20 20 20 20 21 22 23 23 23 24 25 25 25 26 27 28 28 28 28 27 28 28 29 29 29 29 29
29 26 23 21 20 19 18 17 16 15 15 16 17 18 19 20 21 21 21 22 22 23 23 24 25 26 27 28 27 26 25 25 25 25 24 25 24 23
20 17 16 15 15 14 13 13 12 13 14 15 16 17 18 19 20 20 20 21 21 21 22 23 24 25 25 26 25 25 24 23 22 21 20 20 20 19
14 13 13 12 12 12 12 12 12 13 14 14 15 16 17 18 18 19 20 20 21 21 22 23 24 24 24 23 23 23 22 21 20 20 19 18 18 17
11 11 11 11 12 12 12 12 13 13 13 14 14 15 16 17 18 19 20 20 20 21 22 23 23 23 22 22 22 21 20 19 19 19 18 18 18 17
10 10 11 11 12 12 13 13 13 13 14 14 15 16 17 17 18 19 19 19 19 19 20 21 21 21 21 21 21 20 19 19 18 19 19 19 19 18
10 10 10 10 11 12 12 13 13 14 14 15 16 16 17 17 18 18 19 18 18 18 19 19 20 20 20 21 21 20 20 19 19 20 19 19 19 19
9 10 10 10 11 11 12 13 13 14 15 15 15 16 16 16 16 17 17 16 17 18 18 18 18 19 20 20 20 21 20 20 20 20 20 20 20 20
9 9 10 11 11 11 12 13 14 14 15 15 15 15 15 14 15 15 14 15 16 17 18 18 18 18 19 20 20 21 21 21 21 21 21 21 21 21
9 9 10 11 11 11 12 13 14 15 15 15 15 14 14 14 13 13 13 14 15 16 17 17 18 18 19 20 20 21 21 22 22 22 22 22 22 22
9 9 10 11 11 11 12 13 14 15 15 15 15 14 13 13 13 12 12 12 13 15 16 16 17 18 18 19 20 21 22 22 23 22 22 23 23 23
9 10 10 11 11 12 13 14 15 15 15 14 14 14 13 12 12 11 11 11 12 13 14 15 16 17 18 18 19 20 21 22 23 23 23 23 23 24
9 10 11 11 12 13 13 14 14 15 14 14 13 13 13 12 11 11 10 10 11 11 12 13 14 15 16 17 18 18 20 21 22 23 23 24 24 24
10 10 11 11 12 13 14 14 14 14 14 14 13 13 12 12 11 10 10 10 11 11 11 12 13 14 15 16 17 17 18 20 21 22 23 24 25 25